Weather History for Dublin, VA

Change the Weather History Date:

Thursday, December 13, 2012

  Actual Average (KBCB) Record (KBCB)
Temperature  
Mean Temperature 35 °F 34 °F  
Max Temperature 46 °F 44 °F 67 °F (1979)
Min Temperature 24 °F 24 °F -5 °F (1962)
Degree Days  
Heating Degree Days 30 31  
Month to date heating degree days 380  
Since 1 July heating degree days 1560  
Cooling Degree Days 0 0  
Month to date cooling degree days 0  
Year to date cooling degree days 573  
Moisture  
Dew Point 24 °F    
Average Humidity 74    
Maximum Humidity 100    
Minimum Humidity 37    
Precipitation  
Precipitation 0.00 in 0.09 in 1.34 in (2009)
Month to date precipitation 1.32  
Year to date precipitation 39.26  
Snow  
Snow 0.00 in - - ()
Month to date snowfall  
Since 1 July snowfall  
Snow Depth -    
Sea Level Pressure  
Sea Level Pressure 30.35 in    
Wind  
Wind Speed 1 mph (ENE)    
Max Wind Speed 6 mph    
Max Gust Speed -    
Visibility 10 miles    
Events      
T = Trace of Precipitation, MM = Missing Value Source: NWS Daily Summary

Daily Weather History Graph

Daily Weather History Graph

Search for Another Location

Airport:

Trip Planner

Search our weather history database for the weather conditions in past years. The results will help you decide how hot, cold, wet, or windy it might be!

Date:

Astronomy

Dec. 13, 2012 Rise Set
Actual Time 7:28 AM EST 5:06 PM EST
Civil Twilight 6:59 AM EST 5:35 PM EST
Nautical Twilight 6:26 AM EST 6:07 PM EST
Astronomical Twilight 5:54 AM EST 6:39 PM EST
Moon 7:35 AM EST (12/13) 5:46 PM EST (12/13)
Length of Visible Light 10h 36m
Length of Day
9h 38m
New Moon, 0% of the Moon is Illuminated
Dec 13
New Moon
Dec 20
First Quarter
Dec 28
Full
Jan 4
Last Quarter
Jan 11
New

Hourly Weather History & Observations

Time (EST) Temp. Windchill Dew Point Humidity Pressure Visibility Wind Dir Wind Speed Gust Speed Precip Events Conditions
12:15 AM 28.4 °F - 28.4 °F 100% 30.34 in 10.0 mi Calm Calm - N/A   Clear
12:35 AM 28.4 °F - 26.6 °F 93% 30.34 in 10.0 mi Calm Calm - N/A   Scattered Clouds
12:55 AM 28.4 °F - 28.4 °F 100% 30.32 in 10.0 mi Calm Calm - N/A   Scattered Clouds
1:15 AM 28.4 °F 23.3 °F 28.4 °F 100% 30.30 in 10.0 mi NNE 4.6 mph - N/A   Clear
1:35 AM 30.2 °F 25.4 °F 28.4 °F 93% 30.32 in 10.0 mi ENE 4.6 mph - N/A   Clear
1:55 AM 30.2 °F - 28.4 °F 93% 30.33 in 10.0 mi Calm Calm - N/A   Clear
2:15 AM 30.2 °F - 28.4 °F 93% 30.34 in 7.0 mi Calm Calm - N/A   Clear
2:35 AM 30.2 °F - 28.4 °F 93% 30.34 in 10.0 mi Calm Calm - N/A   Scattered Clouds
2:55 AM 28.4 °F - 26.6 °F 93% 30.35 in 10.0 mi Calm Calm - N/A   Scattered Clouds
3:15 AM 26.6 °F - 26.6 °F 100% 30.35 in 10.0 mi Calm Calm - N/A   Mostly Cloudy
3:35 AM 28.4 °F - 26.6 °F 93% 30.35 in 10.0 mi Calm Calm - N/A   Overcast
3:55 AM 28.4 °F - 28.4 °F 100% 30.34 in 10.0 mi Calm Calm - N/A   Overcast
4:15 AM 28.4 °F - 28.4 °F 100% 30.34 in 10.0 mi Calm Calm - N/A   Mostly Cloudy
4:35 AM 28.4 °F - 26.6 °F 93% 30.34 in 10.0 mi Calm Calm - N/A   Scattered Clouds
4:55 AM 26.6 °F - 26.6 °F 100% 30.34 in 10.0 mi Calm Calm - N/A   Clear
5:15 AM 26.6 °F - 26.6 °F 100% 30.34 in 10.0 mi Calm Calm - N/A   Clear
5:35 AM 26.6 °F - 26.6 °F 100% 30.34 in 10.0 mi Calm Calm - N/A   Clear
5:55 AM 26.6 °F - 26.6 °F 100% 30.35 in 10.0 mi Calm Calm - N/A   Clear
6:15 AM 24.8 °F 20.5 °F 24.8 °F 100% 30.37 in 7.0 mi WNW 3.5 mph - N/A   Clear
6:35 AM 24.8 °F - 24.8 °F 100% 30.37 in 7.0 mi Calm Calm - N/A   Clear
6:55 AM 24.8 °F - 24.8 °F 100% 30.39 in 10.0 mi Calm Calm - N/A   Clear
7:15 AM 24.8 °F - 24.8 °F 100% 30.38 in 10.0 mi Calm Calm - N/A   Clear
7:35 AM 24.8 °F - 24.8 °F 100% 30.39 in 7.0 mi Calm Calm - N/A   Clear
7:55 AM 24.8 °F - 24.8 °F 100% 30.39 in 7.0 mi Calm Calm - N/A   Clear
8:15 AM 24.8 °F - 24.8 °F 100% 30.39 in 7.0 mi Calm Calm - N/A   Clear
8:35 AM 26.6 °F - 26.6 °F 100% 30.39 in 7.0 mi Calm Calm - N/A   Clear
8:55 AM 28.4 °F - 28.4 °F 100% 30.40 in 10.0 mi Calm Calm - N/A   Clear
9:15 AM 30.2 °F - 28.4 °F 93% 30.40 in 10.0 mi Calm Calm - N/A   Clear
9:35 AM 33.8 °F - 28.4 °F 81% 30.40 in 10.0 mi Calm Calm - N/A   Clear
9:55 AM 33.8 °F 30.8 °F 26.6 °F 75% 30.41 in 10.0 mi ENE 3.5 mph - N/A   Clear
10:15 AM 35.6 °F 32.8 °F 24.8 °F 65% 30.42 in 10.0 mi East 3.5 mph - N/A   Clear
10:35 AM 37.4 °F 33.8 °F 24.8 °F 60% 30.41 in 10.0 mi East 4.6 mph - N/A   Clear
10:55 AM 37.4 °F 32.8 °F 24.8 °F 60% 30.41 in 10.0 mi ENE 5.8 mph - N/A   Clear
11:15 AM 37.4 °F 33.8 °F 24.8 °F 60% 30.40 in 10.0 mi NE 4.6 mph - N/A   Clear
11:35 AM 39.2 °F 35.9 °F 21.2 °F 49% 30.40 in 10.0 mi NE 4.6 mph - N/A   Clear
11:55 AM 39.2 °F - 21.2 °F 49% 30.39 in 10.0 mi Calm Calm - N/A   Clear
12:15 PM 41.0 °F 38.0 °F 19.4 °F 42% 30.38 in 10.0 mi SE 4.6 mph - N/A   Clear
12:35 PM 42.8 °F 40.1 °F 19.4 °F 39% 30.37 in 10.0 mi SE 4.6 mph - N/A   Clear
12:55 PM 42.8 °F - 19.4 °F 39% 30.37 in 10.0 mi Calm Calm - N/A   Clear
1:15 PM 42.8 °F 41.1 °F 19.4 °F 39% 30.36 in 10.0 mi ENE 3.5 mph - N/A   Clear
1:35 PM 42.8 °F - 19.4 °F 39% 30.35 in 10.0 mi Calm Calm - N/A   Clear
1:55 PM 44.6 °F - 21.2 °F 39% 30.35 in 10.0 mi Calm Calm - N/A   Clear
2:15 PM 44.6 °F - 21.2 °F 39% 30.35 in 10.0 mi Calm Calm - N/A   Clear
2:35 PM 44.6 °F - 21.2 °F 39% 30.34 in 10.0 mi Calm Calm - N/A   Clear
2:55 PM 44.6 °F - 21.2 °F 39% 30.34 in 10.0 mi Calm Calm - N/A   Clear
3:15 PM 46.4 °F - 21.2 °F 37% 30.34 in 10.0 mi Calm Calm - N/A   Clear
3:35 PM 46.4 °F - 21.2 °F 37% 30.32 in 10.0 mi Calm Calm - N/A   Clear
3:55 PM 44.6 °F - 21.2 °F 39% 30.32 in 10.0 mi Calm Calm - N/A   Clear
4:15 PM 44.6 °F - 21.2 °F 39% 30.32 in 10.0 mi Calm Calm - N/A   Clear
4:35 PM 44.6 °F - 21.2 °F 39% 30.33 in 10.0 mi Calm Calm - N/A   Clear
4:55 PM 42.8 °F - 21.2 °F 42% 30.33 in 10.0 mi Calm Calm - N/A   Clear
5:15 PM 41.0 °F - 21.2 °F 45% 30.33 in 10.0 mi Calm Calm - N/A   Clear
5:35 PM 39.2 °F - 21.2 °F 49% 30.32 in 10.0 mi Calm Calm - N/A   Clear
7:15 PM 33.8 °F - 21.2 °F 60% 30.35 in 10.0 mi Calm Calm - N/A   Clear
8:15 PM 30.2 °F 26.7 °F 21.2 °F 69% 30.34 in 10.0 mi WNW 3.5 mph - N/A   Clear
8:35 PM 28.4 °F - 23.0 °F 80% 30.34 in 10.0 mi Calm Calm - N/A   Clear
8:55 PM 28.4 °F - 23.0 °F 80% 30.34 in 10.0 mi Calm Calm - N/A   Clear
9:15 PM 30.2 °F - 23.0 °F 75% 30.34 in 10.0 mi Calm Calm - N/A   Clear
9:35 PM 30.2 °F - 21.2 °F 69% 30.34 in 10.0 mi Calm Calm - N/A   Clear
9:55 PM 28.4 °F - 23.0 °F 80% 30.34 in 10.0 mi Calm Calm - N/A   Clear
10:15 PM 30.2 °F - 21.2 °F 69% 30.34 in 10.0 mi Calm Calm - N/A   Clear
10:35 PM 28.4 °F 24.6 °F 21.2 °F 74% 30.34 in 10.0 mi WNW 3.5 mph - N/A   Clear
10:55 PM 26.6 °F - 21.2 °F 80% 30.34 in 10.0 mi Calm Calm - N/A   Clear
11:15 PM 26.6 °F - 21.2 °F 80% 30.34 in 10.0 mi Calm Calm - N/A   Clear
11:35 PM 26.6 °F - 21.2 °F 80% 30.34 in 10.0 mi Calm Calm - N/A   Clear
11:55 PM 26.6 °F - 21.2 °F 80% 30.33 in 10.0 mi Calm Calm - N/A   Clear